GW5212 Weather Reports


time (UTC)temp
C
wind
direction
speed
KPH
gust
KPH
rain 1hr
cm
rain 24hr
cm
rain mn
cm
humidity
%
barometer
mb
20260508071518 26 25 4.8 24.1 0.00 0.03 0.03 89 1017.6
20260508070540 26 23 0.0 8.0 0.00 0.03 0.03 89 1017.8
20260508065521 26 30 1.6 11.3 0.00 0.03 0.03 89 1017.8
20260508064521 25 46 0.0 3.2 0.00 0.03 0.03 90 1017.8
20260508063524 25 60 3.2 19.3 0.00 0.03 0.03 90 1017.9
20260508062602 25 19 1.6 16.1 0.00 0.03 0.03 91 1018.0
20260508061521 25 42 4.8 19.3 0.00 0.03 0.03 91 1017.9
20260508060518 25 68 1.6 11.3 0.00 0.03 0.03 92 1018.0
20260508055519 25 37 1.6 19.3 0.03 0.03 0.03 92 1018.1
20260508054521 25 41 3.2 19.3 0.03 0.03 0.03 92 1018.3
20260508053520 25 46 1.6 11.3 0.03 0.03 0.03 93 1018.3
20260508052523 25 44 1.6 8.0 0.03 0.03 0.03 95 1018.3
20260508051520 26 42 1.6 11.3 0.03 0.03 0.03 95 1018.2
20260508050542 26 354 1.6 16.1 0.03 0.03 0.03 93 1018.3
20260508045526 26 37 1.6 16.1 0.00 0.00 0.00 92 1018.4
20260508044518 27 50 1.6 19.3 0.00 0.00 0.00 94 1018.3
20260508043523 27 52 4.8 19.3 0.00 0.00 0.00 91 1018.3
20260508042539 28 56 3.2 19.3 0.00 0.00 0.00 89 1018.3
20260508041520 28 45 3.2 16.1 0.00 0.00 0.00 84 1018.2
20260508040521 28 19 1.6 11.3 0.00 0.00 0.00 83 1018.4
20260508035519 28 46 3.2 19.3 0.00 0.00 0.00 83 1018.3
20260508034521 28 74 3.2 19.3 0.00 0.00 0.00 82 1018.5
20260508033519 28 53 3.2 27.4 0.00 0.00 0.00 82 1018.6
20260508032522 28 29 3.2 19.3 0.00 0.00 0.00 82 1018.6
20260508031559 29 58 4.8 24.1 0.00 0.00 0.00 82 1018.6
20260508030521 29 73 3.2 24.1 0.00 0.00 0.00 82 1018.6
20260508025520 30 68 3.2 16.1 0.00 0.00 0.00 79 1018.7
20260508024521 29 352 0.0 8.0 0.00 0.00 0.00 78 1018.7
20260508023518 29 21 0.0 8.0 0.00 0.00 0.00 79 1018.6
20260508022519 29 65 1.6 11.3 0.00 0.00 0.00 80 1018.6
20260508021601 29 59 0.0 8.0 0.00 0.00 0.00 79 1018.7
20260508020521 29 95 0.0 3.2 0.00 0.00 0.00 80 1018.7
20260508015520 29 38 0.0 3.2 0.00 0.00 0.00 79 1018.7
20260508014521 29 317 0.0 3.2 0.00 0.00 0.00 80 1018.8
20260508013538 29 26 0.0 3.2 0.00 0.00 0.00 80 1018.8
20260508012517 29 36 0.0 0.0 0.00 0.00 0.00 78 1018.7
20260508011541 28 313 0.0 0.0 0.00 0.00 0.00 78 1018.7
20260508010541 28 89 0.0 0.0 0.00 0.00 0.00 77 1018.8
20260508005520 28 261 0.0 0.0 0.00 0.00 0.00 79 1018.7
20260508004520 27 251 0.0 0.0 0.00 0.00 0.00 80 1018.7
20260508003520 27 207 0.0 0.0 0.00 0.00 0.00 82 1018.7
20260508002517 27 250 0.0 0.0 0.00 0.00 0.00 84 1018.5
20260508001518 26 224 0.0 0.0 0.00 0.00 0.00 84 1018.4
20260508000517 26 234 0.0 0.0 0.00 0.00 0.00 85 1018.2
20260507235521 25 214 0.0 0.0 0.00 0.00 0.00 86 1018.2
20260507234539 25 206 0.0 0.0 0.00 0.00 0.00 88 1018.4
20260507233538 25 225 0.0 0.0 0.00 0.00 0.00 89 1018.2
20260507232521 25 187 0.0 0.0 0.00 0.00 0.00 91 1018.2
20260507231520 25 199 0.0 0.0 0.00 0.00 0.00 92 1018.1
20260507230517 24 237 0.0 0.0 0.00 0.00 0.00 90 1017.9
20260507225517 23 206 0.0 0.0 0.00 0.00 0.00 89 1017.9
20260507224541 23 197 0.0 0.0 0.00 0.00 0.00 91 1017.9
20260507223520 22 273 0.0 0.0 0.00 0.00 0.00 94 1017.6
20260507222521 22 209 0.0 0.0 0.00 0.00 0.00 98 1017.6
20260507221521 21 240 0.0 0.0 0.00 0.00 0.00 99 1017.5
20260507220519 21 201 0.0 0.0 0.00 0.00 0.00 99 1017.5
20260507215520 21 248 0.0 0.0 0.00 0.00 0.00 99 1017.4
20260507214520 21 268 0.0 0.0 0.00 0.00 0.00 99 1017.2
20260507213517 21 256 0.0 0.0 0.00 0.00 0.00 99 1017.0
20260507212517 21 298 0.0 0.0 0.00 0.00 0.00 99 1017.0
20260507211522 21 254 0.0 0.0 0.00 0.00 0.00 99 1017.1
20260507210538 21 246 0.0 0.0 0.00 0.00 0.00 99 1017.1
20260507205539 21 231 0.0 0.0 0.00 0.00 0.00 99 1017.0
20260507204517 21 187 0.0 0.0 0.00 0.00 0.00 99 1016.9
20260507203520 21 222 0.0 0.0 0.00 0.00 0.00 99 1016.8
20260507202517 21 317 0.0 0.0 0.00 0.00 0.00 99 1016.6
20260507201521 21 173 0.0 0.0 0.00 0.00 0.00 99 1016.5
20260507200537 21 278 0.0 0.0 0.00 0.00 0.00 99 1016.5
20260507195517 21 322 0.0 0.0 0.00 0.00 0.00 99 1016.4
20260507194517 22 283 0.0 0.0 0.00 0.00 0.00 99 1016.5
20260507193520 22 189 0.0 0.0 0.00 0.00 0.00 99 1016.3
20260507192517 22 266 0.0 0.0 0.00 0.00 0.00 99 1016.2
20260507191520 22 289 0.0 0.0 0.00 0.00 0.00 99 1016.3
20260507190539 22 270 0.0 0.0 0.00 0.00 0.00 99 1016.2
20260507185520 22 268 0.0 0.0 0.00 0.00 0.00 99 1016.2
20260507184543 22 205 0.0 0.0 0.00 0.00 0.00 99 1016.2
20260507183523 22 197 0.0 0.0 0.00 0.00 0.00 99 1016.4
20260507182522 22 257 0.0 0.0 0.00 0.00 0.00 99 1016.4
20260507181541 22 189 0.0 0.0 0.00 0.00 0.00 99 1016.5
20260507180519 22 249 0.0 0.0 0.00 0.00 0.00 99 1016.6
20260507175520 22 350 0.0 0.0 0.00 0.00 0.00 99 1016.8
20260507174521 22 255 0.0 0.0 0.00 0.00 0.00 99 1016.8
20260507173524 22 271 0.0 0.0 0.00 0.00 0.00 99 1016.8
20260507172519 22 249 0.0 0.0 0.00 0.00 0.00 99 1016.8
20260507171520 22 257 0.0 0.0 0.00 0.00 0.00 99 1016.8
20260507170522 22 300 0.0 0.0 0.00 0.00 0.00 99 1016.8
20260507165519 22 201 0.0 0.0 0.00 0.00 0.00 99 1016.9
20260507164545 23 248 0.0 0.0 0.00 0.00 0.00 99 1017.0
20260507163518 23 235 0.0 0.0 0.00 0.00 0.00 99 1017.0
20260507162522 23 175 0.0 0.0 0.00 0.00 0.00 99 1017.1
20260507161520 23 259 0.0 0.0 0.00 0.00 0.00 99 1017.2
20260507160539 23 311 0.0 0.0 0.00 0.00 0.00 99 1017.2
20260507155538 23 330 0.0 0.0 0.00 0.00 0.00 98 1017.3
20260507154520 23 241 0.0 0.0 0.00 0.00 0.00 98 1017.5
20260507153540 23 249 0.0 0.0 0.00 0.00 0.00 98 1017.6
20260507152522 23 283 0.0 0.0 0.00 0.00 0.00 98 1017.7
20260507151542 23 269 0.0 0.0 0.00 0.00 0.00 98 1017.8
20260507150523 23 258 0.0 0.0 0.00 0.00 0.00 97 1018.0
20260507145521 23 263 0.0 0.0 0.00 0.00 0.00 97 1018.0
20260507144540 23 271 0.0 0.0 0.00 0.00 0.00 97 1018.0
20260507143519 23 290 0.0 0.0 0.00 0.00 0.00 97 1017.9
20260507142522 23 327 0.0 0.0 0.00 0.00 0.00 96 1018.1
20260507141519 23 288 0.0 0.0 0.00 0.00 0.00 96 1018.0
20260507140519 24 307 0.0 0.0 0.00 0.00 0.00 96 1018.0
20260507135522 24 264 0.0 0.0 0.00 0.00 0.00 96 1017.9
20260507134542 24 255 0.0 0.0 0.00 0.00 0.00 96 1017.9
20260507133518 24 263 0.0 0.0 0.00 0.00 0.00 95 1017.9
20260507132542 24 261 0.0 0.0 0.00 0.00 0.00 94 1017.8
20260507131522 24 211 0.0 0.0 0.00 0.00 0.00 94 1017.6
20260507130522 25 167 0.0 0.0 0.00 0.00 0.00 94 1017.6
20260507125520 25 267 0.0 0.0 0.00 0.00 0.00 94 1017.5
20260507124519 25 297 0.0 0.0 0.00 0.00 0.00 93 1017.5
20260507123520 25 331 0.0 0.0 0.00 0.00 0.00 93 1017.4
20260507122542 25 274 0.0 0.0 0.00 0.00 0.00 92 1017.3
20260507121539 25 276 0.0 0.0 0.00 0.00 0.00 92 1017.4
20260507120541 25 333 0.0 0.0 0.00 0.00 0.00 91 1017.2
20260507115522 25 254 0.0 0.0 0.00 0.00 0.00 91 1017.2
20260507114539 25 256 0.0 0.0 0.00 0.00 0.00 91 1017.1
20260507113540 25 295 0.0 0.0 0.00 0.00 0.00 91 1016.9
20260507112521 26 298 0.0 0.0 0.00 0.00 0.00 91 1016.7
20260507111520 26 277 0.0 0.0 0.00 0.00 0.00 91 1016.7
20260507110522 26 316 0.0 0.0 0.00 0.00 0.00 90 1016.6
20260507105520 26 275 0.0 0.0 0.00 0.00 0.00 88 1016.3
20260507104517 26 288 0.0 0.0 0.00 0.00 0.00 88 1016.3
20260507103538 26 18 0.0 0.0 0.00 0.00 0.00 88 1016.2
20260507102522 27 330 0.0 0.0 0.00 0.00 0.00 87 1016.1
20260507101601 27 338 0.0 0.0 0.00 0.00 0.00 87 1016.1
20260507100521 27 32 0.0 0.0 0.00 0.00 0.00 86 1016.1
20260507095522 27 23 0.0 0.0 0.00 0.00 0.00 86 1016.0
20260507094522 27 133 0.0 0.0 0.00 0.00 0.00 86 1015.8
20260507093520 27 312 0.0 0.0 0.00 0.00 0.00 86 1015.8
20260507092537 27 343 0.0 0.0 0.00 0.00 0.00 86 1015.8
20260507091520 27 285 0.0 3.2 0.00 0.00 0.00 85 1015.7
20260507090522 27 318 0.0 0.0 0.00 0.00 0.00 84 1015.6
20260507085519 27 357 0.0 0.0 0.00 0.00 0.00 84 1015.5
20260507084520 27 25 0.0 0.0 0.00 0.00 0.00 84 1015.5
20260507083517 27 7 0.0 3.2 0.00 0.00 0.00 84 1015.4
20260507082516 27 36 0.0 0.0 0.00 0.00 0.00 84 1015.3
20260507081516 27 61 0.0 0.0 0.00 0.00 0.00 83 1015.4
20260507080519 27 27 0.0 0.0 0.00 0.00 0.00 84 1015.4
20260507075516 27 15 0.0 0.0 0.00 0.00 0.00 84 1015.5
20260507074617 27 44 0.0 0.0 0.00 0.00 0.00 84 1015.4
20260507073520 27 1 0.0 0.0 0.00 0.00 0.00 84 1015.5
20260507072517 27 24 0.0 0.0 0.00 0.00 0.00 84 1015.7